Main page
METAR-TAF:

METAR-TAF

Airports :

Montes Claros Airport

Montes Claros, Minas Gerais, Brazil

latitude: 16-43S, longitude: 043-52W, elevation: 646 m

Current weather observation

The report was made 1 hour and 14 minutes ago, at 19:00 UTC
Wind 5 kt from the Northeast
Temperature 22°C
Humidity 100%
Pressure 1013 hPa
Visibility: 1500 m
Scattered clouds at a height of 400 ft
Overcast at a height of 2600 ft
light rain, mist

METAR: SBMK 261900Z 05005KT 4000 1500W -RA BR SCT004 OVC026 22/22 Q1013

Time: 17:14 (20:14 UTC)


TAF: missing

Weather observations and forecasts of more than 4000 airports (METAR and TAF reports).

The available stations are represented by yellow and red dots on the map.

Hover mouse over dot to see the name of the station.

Then click to see weather observations and forecasts.

To change the map : click on the green buttons with a black cross to zoom in, on the green button with a dash to zoom out, or on the green arrows for adjacent maps.


METAR-TAF: